Orbital Elements at Epoch 2459200.5 (2020-Dec-17.0) TDB
Reference: JPL 19 (heliocentric ecliptic J2000)
Element | Value | Uncertainty (1-sigma) | Units |
e | .1488807151498617 | 6.9279e-08 | |
a | 2.717790351068053 | 2.0526e-08 | au |
q | 2.313163779973647 | 1.8441e-07 | au |
i | 27.10319710779308 | 7.4584e-06 | deg |
node | 173.980846704733 | 1.0056e-05 | deg |
peri | 188.834319483263 | 2.027e-05 | deg |
M | 220.6687082374134 | 2.1641e-05 | deg |
tp | 2459833.886085400614 (2022-Sep-11.38608540) | 0.00010359 | TDB |
period | 1636.523912609335 4.48 | 1.8539e-05 5.076e-08 | d yr |
n | .2199784538595605 | 2.492e-09 | deg/d |
Q | 3.122416922162458 | 2.3582e-08 | au |
|
| | Orbit Determination Parameters
Additional Information
|